Location: Joplin
(37.0842°N, 94.5131°W)
Time: 06:09:46
(UTC-05:00)

Nauka - Visible Passes

Search period start: 20 September 2021 00:00
Search period end: 30 September 2021 00:00
Orbit: 419 x 423 km, 51.6° (Epoch: 19 September)

Date Brightness Start Highest point End Pass type
(mag) Time Alt. Az. Time Alt. Az. Time Alt. Az.
20 Sep ? 20:04:28 10° W 20:07:11 22° NNW 20:09:54 10° NNE visible
22 Sep ? 20:09:21 10° NW 20:10:39 12° NNW 20:11:59 10° N visible
29 Sep ? 21:10:02 10° NNW 21:10:38 13° NNW 21:10:38 13° NNW visible
